CAPE
704 656 511 422 387 371 329 334 336 426 355 366 379 433 482 501 554 700 725 702 722 788 860 756 602 645 796 794 770 747 752 864 980 1024 1005 906 731 634 521 454 612 687
708 641 570 472 404 443 489 506 497 484 494 462 439 493 585 642 700 764 834 860 865 874 852 751 590 533 552 584 600 580 539 458 412 589 638 681 589 486 494 338 257 299
736 628 504 408 402 496 580 591 583 568 539 541 578 655 739 771 802 866 918 932 917 872 803 760 742 729 708 640 560 474 394 381 408 506 559 534 442 383 283 222 228 248
627 522 387 321 359 474 541 514 446 408 398 436 492 575 681 770 881 905 926 1011 911 846 807 794 760 714 662 606 562 509 516 484 459 459 439 518 446 330 242 230 258 288
387 292 152 141 220 309 368 386 363 223 220 310 397 484 636 642 612 580 582 627 694 719 686 612 527 436 378 379 473 496 503 471 496 529 476 446 485 431 319 268 266 265
69 58 63 48 84 201 242 238 212 154 209 270 336 448 577 613 565 534 550 506 504 498 489 495 450 444 427 388 368 402 444 432 430 458 483 438 386 323 246 194 170 122
13 7 4 1 9 28 98 59 40 148 172 370 477 578 633 630 544 509 532 528 572 638 571 555 545 540 571 520 494 459 442 437 426 366 331 378 391 327 252 174 97 66
0 0 0 0 0 0 6 5 4 17 281 414 535 636 686 643 544 528 577 691 725 655 531 440 418 442 464 471 493 471 463 454 466 464 440 484 512 507 456 300 212 194
0 0 0 0 0 0 0 0 3 23 246 471 640 753 759 737 634 619 663 674 628 557 458 370 330 330 331 308 339 386 364 351 369 388 414 502 628 672 636 534 362 259
0 0 0 0 0 0 0 0 4 36 189 477 731 824 854 822 826 877 845 738 638 553 429 325 302 328 338 303 268 232 313 337 368 371 366 373 370 402 426 438 352 268
0 0 0 0 2 0 7 12 18 70 196 504 688 839 931 975 1009 1000 952 902 765 615 436 320 309 370 392 351 237 294 305 310 332 330 343 359 380 352 334 286 244 212
0 0 0 57 62 192 44 13 48 108 202 375 710 876 982 1092 1137 1158 1015 981 866 665 448 334 322 406 426 368 304 254 222 214 222 232 232 248 214 215 230 170 121 60
0 0 343 490 414 297 146 70 78 98 211 402 638 851 1003 1124 1249 1225 1143 1038 888 683 460 364 346 400 374 416 369 294 207 226 218 218 250 272 233 200 168 127 76 102
0 0 458 656 591 428 310 296 32 54 136 236 492 685 859 946 1027 1128 1104 986 838 653 453 396 294 344 312 274 213 175 228 247 181 186 169 119 40 30 32 34 25 22
0 0 500 772 696 430 244 392 414 264 159 281 426 490 613 647 726 881 933 882 764 598 410 211 285 301 183 163 126 103 132 142 135 113 65 38 109 130 108 92 60 32
0 6 384 811 775 554 397 489 557 519 376 320 276 269 306 408 488 709 823 780 688 562 323 276 353 344 50 41 12 2 2 3 64 76 60 34 72 138 128 88 60 38
0 8 501 730 689 555 474 558 711 692 575 394 303 314 357 360 506 536 548 574 580 404 217 331 396 354 0 2 2 0 1 1 0 0 26 16 2 19 43 65 60 46
0 4 44 578 411 30 19 528 794 823 698 546 450 345 336 456 429 394 351 396 501 364 267 396 406 221 1 0 0 0 0 2 2 0 0 24 36 56 58 60 69 78
0 2 38 47 22 7 12 482 765 874 793 609 457 359 373 381 344 272 251 358 454 348 211 397 354 163 6 0 0 0 0 0 0 0 0 38 87 174 202 156 111 77
0 0 0 0 0 0 12 104 651 841 806 610 412 278 226 226 218 241 305 446 509 413 212 332 339 164 40 4 0 0 0 0 3 81 56 87 225 272 234 136 74 44
0 0 0 0 0 3 47 170 638 820 764 320 140 128 140 170 242 315 454 584 444 292 299 399 346 186 56 0 0 0 0 0 14 26 107 159 262 296 110 30 9 24
0 0 0 0 0 7 256 509 716 781 673 242 275 87 70 146 251 410 558 442 312 249 273 227 253 181 64 0 0 0 0 1 22 104 188 272 298 61 59 33 1 16
0 0 0 0 0 3 345 586 791 825 625 206 122 22 25 81 237 328 512 456 306 266 244 178 214 200 83 0 0 0 0 2 9 198 285 162 36 37 10 12 14 22
0 0 0 0 0 2 261 692 870 865 597 210 112 10 15 67 334 372 480 454 375 252 266 264 232 266 134 30 0 0 0 7 2 40 93 78 58 38 13 21 38 1
0 0 0 0 0 496 704 863 904 843 655 108 2 0 172 16 314 536 475 378 296 295 374 296 377 412 199 51 0 0 0 6 5 2 47 53 38 40 34 30 22 4
6 30 7 7 80 657 923 942 887 550 5 1 2 4 237 10 55 460 560 408 399 283 299 244 414 448 258 83 44 34 38 18 0 0 0 15 36 31 48 26 4 9
Wind_Speed
39 40 39 40 41 41 40 40 41 40 40 40 39 38 37 36 36 34 31 30 29 28 29 31 33 33 33 33 35 36 35 33 33 35 33 33 32 31 28 26 27 29
39 41 41 41 41 41 41 41 40 39 38 40 40 39 37 35 35 35 33 33 34 34 33 33 33 34 35 35 35 35 34 33 32 34 33 31 31 31 29 27 28 30
41 41 40 41 40 39 39 40 40 38 37 35 36 39 39 38 34 34 34 34 33 34 34 34 34 33 34 33 33 33 34 32 31 33 34 31 29 30 30 30 31 29
42 41 40 39 39 39 38 38 37 37 36 34 34 36 37 37 36 35 34 34 33 33 34 35 34 34 34 33 32 32 33 33 31 32 34 33 31 30 30 32 30 31
42 42 42 40 38 37 36 35 34 33 32 32 32 33 35 36 35 33 33 34 35 33 33 34 33 33 33 33 32 31 31 32 31 33 35 33 32 31 30 31 31 29
nan nan nan nan nan 36 35 34 32 31 30 30 32 34 35 35 35 35 33 34 36 35 33 33 33 33 32 31 31 30 30 31 32 33 34 32 31 32 32 33 32 30
nan nan nan nan nan nan nan nan nan 33 33 33 33 33 34 35 36 35 34 33 34 34 33 32 32 31 31 31 30 30 31 30 30 32 32 31 31 31 32 32 nan nan
nan nan nan nan nan nan nan nan nan nan 35 36 35 34 35 34 34 34 32 31 31 32 31 30 29 29 28 30 28 28 29 31 30 30 31 31 32 31 33 33 32 31
nan nan nan nan nan nan nan nan nan nan 35 35 34 33 33 33 31 29 28 27 27 28 29 28 27 27 28 28 27 26 26 28 29 29 29 29 29 30 32 33 32 31
nan nan nan nan nan nan nan nan nan nan 33 32 32 32 30 29 28 26 25 24 23 24 26 26 26 26 26 26 26 26 26 26 26 26 26 27 27 30 32 32 31 31
nan nan nan nan nan nan nan nan nan nan 31 30 29 29 28 27 25 24 22 21 21 22 24 25 25 25 24 23 25 26 26 25 24 23 25 25 26 28 30 30 31 29
nan nan nan nan nan 32 nan nan nan 30 29 28 28 27 26 24 23 23 21 19 20 21 22 23 24 25 24 22 22 23 23 24 24 23 23 25 25 25 26 29 30 nan
nan nan 34 32 32 31 31 nan nan nan 27 27 27 26 23 21 19 19 18 17 17 20 19 20 22 24 24 22 21 21 21 22 22 22 22 25 25 25 25 26 nan 29
nan nan 32 31 31 30 29 28 nan nan 27 28 27 23 22 21 18 16 15 16 16 18 16 18 20 23 26 27 26 22 21 21 22 22 22 23 nan nan nan nan nan nan
nan nan 32 31 30 29 27 27 27 27 28 28 27 23 21 20 17 15 14 14 16 16 12 12 15 21 25 27 26 24 21 19 20 20 nan nan 21 23 25 nan nan nan
nan nan 30 30 29 27 26 26 26 26 26 27 24 21 19 17 14 12 13 13 13 13 10 8 11 15 nan nan nan nan nan nan nan nan nan nan nan 21 23 nan nan nan
nan nan 30 28 28 26 25 26 26 26 26 25 23 21 18 15 14 13 12 12 11 11 8 8 9 11 nan nan nan nan nan nan nan nan nan nan nan nan nan nan nan nan
nan nan nan 26 26 nan nan 25 27 26 26 25 23 20 19 17 16 15 15 13 10 9 8 9 8 8 nan nan nan nan nan nan nan nan nan nan nan nan nan nan nan nan
nan nan nan nan nan nan nan 24 25 26 26 25 22 22 21 19 17 17 15 13 10 10 9 9 9 9 nan nan nan nan nan nan nan nan nan nan nan 16 15 14 14 nan
nan nan nan nan nan nan nan 23 25 25 25 25 24 22 22 20 17 15 14 12 10 10 9 10 11 10 nan nan nan nan nan nan nan nan nan nan 16 16 16 15 nan nan
nan nan nan nan nan nan nan 22 23 24 24 24 23 22 21 19 16 13 13 12 9 8 10 10 13 10 nan nan nan nan nan nan nan nan 13 14 17 18 17 nan nan nan
nan nan nan nan nan nan 22 21 22 23 23 22 22 nan nan 20 16 15 13 12 8 7 9 10 13 12 nan nan nan nan nan nan nan 19 17 21 24 nan nan nan nan nan
nan nan nan nan nan nan 21 20 20 20 20 23 20 nan nan nan 14 13 14 13 10 7 7 9 13 14 nan nan nan nan nan nan nan 19 20 26 nan nan nan nan nan nan
nan nan nan nan nan nan 20 18 19 21 21 22 20 nan nan nan 14 12 14 16 14 11 9 6 8 12 16 nan nan nan nan nan nan nan nan nan nan nan nan nan nan nan
nan nan nan nan nan 23 21 18 17 17 18 20 nan nan 16 nan 14 13 12 15 17 15 10 6 5 7 13 nan nan nan nan nan nan nan nan nan nan nan nan nan nan nan
nan nan nan nan nan 23 21 18 18 17 nan nan nan nan 14 nan nan 14 13 13 16 16 14 10 4 5 6 nan nan nan nan nan nan nan nan nan nan nan nan nan nan nan
Wind_Direction
305 304 303 302 302 303 302 300 300 299 299 296 296 294 293 291 286 282 277 271 268 270 270 270 268 269 271 273 274 273 270 267 263 263 264 260 255 256 255 255 252 246
308 308 306 304 304 303 302 302 301 301 300 299 298 296 292 287 285 283 279 275 270 268 268 268 267 266 267 268 267 266 263 263 265 263 262 261 255 255 254 254 253 250
311 309 308 307 307 304 302 301 302 303 303 301 299 297 295 291 285 280 276 272 268 266 266 265 264 263 263 263 261 259 258 259 260 260 261 260 255 251 252 255 256 257
313 313 311 309 307 305 303 301 301 302 301 299 298 295 293 291 288 283 276 269 264 262 263 264 264 262 260 259 258 257 257 259 257 256 259 259 256 252 252 255 256 255
316 315 314 312 309 306 303 301 300 298 298 298 295 291 291 290 288 282 277 272 269 265 263 263 262 261 260 259 260 259 260 260 259 257 258 260 258 255 253 256 257 257
nan nan nan nan nan 309 307 305 302 298 295 292 292 292 292 291 290 286 278 271 269 268 265 265 266 265 263 260 258 259 260 261 262 262 261 261 259 256 252 256 259 258
nan nan nan nan nan nan nan nan nan 302 299 297 292 291 292 293 292 290 285 277 270 267 264 263 263 262 262 260 257 258 259 260 260 262 262 259 258 257 256 258 nan nan
nan nan nan nan nan nan nan nan nan nan 300 296 295 295 294 294 292 290 288 281 274 270 267 266 266 265 262 261 259 257 259 260 259 259 259 258 257 255 257 257 257 255
nan nan nan nan nan nan nan nan nan nan 301 298 297 296 295 294 291 288 284 279 274 270 268 267 266 264 262 261 260 260 261 264 262 258 257 256 255 253 252 252 251 252
nan nan nan nan nan nan nan nan nan nan 305 303 303 300 297 293 289 283 279 274 270 269 268 265 261 258 257 258 257 257 257 259 257 254 255 257 254 250 248 246 247 249
nan nan nan nan nan nan nan nan nan nan 311 309 306 303 301 296 288 281 276 271 267 269 266 259 253 250 249 251 252 253 253 250 248 246 249 252 249 247 246 244 244 247
nan nan nan nan nan 317 nan nan nan 317 315 314 311 308 305 301 294 284 278 270 269 274 266 250 243 243 244 246 247 248 249 249 246 245 245 246 245 244 241 239 240 nan
nan nan 319 317 317 321 323 nan nan nan 317 317 313 310 307 302 296 291 285 276 277 281 268 244 234 235 236 237 238 241 245 248 246 244 242 244 246 247 243 239 nan 241
nan nan 319 319 319 323 327 327 nan nan 318 318 317 314 306 301 296 293 287 281 283 283 269 248 234 232 229 227 225 229 235 235 236 236 235 237 nan nan nan nan nan nan
nan nan 320 319 319 323 328 328 324 320 317 318 319 313 304 297 296 294 290 284 282 276 260 246 235 229 228 223 217 217 224 229 230 231 nan nan 235 239 243 nan nan nan
nan nan 319 317 319 324 328 330 327 322 317 316 315 308 302 302 306 309 302 291 275 258 247 249 251 244 nan nan nan nan nan nan nan nan nan nan nan 237 241 nan nan nan
nan nan 316 316 319 322 328 332 331 325 319 318 319 310 300 303 314 320 313 299 281 258 244 258 259 250 nan nan nan nan nan nan nan nan nan nan nan nan nan nan nan nan
nan nan nan 316 316 nan nan 331 330 328 323 320 322 317 307 302 305 307 307 303 292 279 278 277 265 243 nan nan nan nan nan nan nan nan nan nan nan nan nan nan nan nan
nan nan nan nan nan nan nan 326 327 329 326 321 324 323 315 307 301 296 296 290 291 293 287 283 279 249 nan nan nan nan nan nan nan nan nan nan nan 247 244 242 244 nan
nan nan nan nan nan nan nan 323 325 329 330 325 323 321 320 317 306 302 299 288 288 299 305 299 287 260 nan nan nan nan nan nan nan nan nan nan 237 244 245 240 nan nan
nan nan nan nan nan nan nan 320 323 326 327 324 321 321 319 317 310 303 304 297 290 304 313 301 284 252 nan nan nan nan nan nan nan nan 243 237 243 246 242 nan nan nan
nan nan nan nan nan nan 310 316 319 323 325 322 319 nan nan 317 316 315 321 317 305 303 307 294 283 255 nan nan nan nan nan nan nan 231 237 244 240 nan nan nan nan nan
nan nan nan nan nan nan 310 314 316 317 319 317 318 nan nan nan 317 323 325 321 303 281 283 291 286 267 nan nan nan nan nan nan nan 235 240 237 nan nan nan nan nan nan
nan nan nan nan nan nan 310 314 314 316 319 316 318 nan nan nan 316 324 328 321 309 286 276 291 298 279 253 nan nan nan nan nan nan nan nan nan nan nan nan nan nan nan
nan nan nan nan nan 301 306 309 309 313 314 313 nan nan 320 nan 309 316 318 317 316 302 279 280 342 310 261 nan nan nan nan nan nan nan nan nan nan nan nan nan nan nan
nan nan nan nan nan 296 301 307 307 306 nan nan nan nan 316 nan nan 301 309 312 315 312 292 277 324 357 265 nan nan nan nan nan nan nan nan nan nan nan nan nan nan nan